Location: Vancouver
(49.2500°N, 123.1330°W)
Time: 04:59:01
(UTC-07:00)

Oscar 11 - Visible Passes

Search period start: 28 March 2017 00:00
Search period end: 07 April 2017 00:00
Orbit: 613 x 627 km, 97.7° (Epoch: 26 March)

Date Brightness Start Highest point End Pass type
(mag) Time Alt. Az. Time Alt. Az. Time Alt. Az.
28 Mar 7.7 20:30:55 10° SE 20:34:51 36° ENE 20:38:48 10° N visible
28 Mar 9.0 22:07:45 12° SSW 22:11:03 27° W 22:14:45 10° NW visible
29 Mar 7.2 20:48:00 10° SSE 20:52:06 52° ENE 20:56:18 10° N visible
29 Mar 9.5 22:25:30 10° SW 22:28:33 19° W 22:31:36 10° NW visible
30 Mar 7.0 21:05:26 12° SSE 21:09:24 77° ENE 21:13:44 10° N visible
30 Mar 9.8 22:44:09 10° WSW 22:46:05 13° W 22:48:02 10° WNW visible
31 Mar 7.2 21:22:51 13° S 21:26:45 72° WSW 21:31:04 10° NNW visible
01 Apr 7.9 21:40:16 12° S 21:44:07 48° W 21:48:18 10° NNW visible
02 Apr 8.0 20:21:43 10° SE 20:25:27 30° ENE 20:29:13 10° N visible
02 Apr 8.6 21:57:41 10° SSW 22:01:32 32° W 22:05:27 10° NNW visible
03 Apr 7.5 20:38:38 10° SE 20:42:41 43° ENE 20:46:46 10° N visible
03 Apr 9.2 22:15:37 10° SW 22:19:01 22° W 22:22:25 10° NW visible
04 Apr 7.1 20:55:43 10° SSE 20:59:57 63° ENE 21:04:14 10° N visible
04 Apr 9.7 22:33:56 10° SW 22:36:32 16° W 22:39:08 10° NW visible
05 Apr 7.0 21:12:58 10° SSE 21:17:16 88° WSW 21:21:37 10° NNW visible
05 Apr 10.0 22:53:20 10° W 22:54:05 10° W 22:54:50 10° WNW visible
06 Apr 7.6 21:30:23 10° S 21:34:38 59° W 21:38:54 10° NNW visible
